Location: *
(43.6428°N, 11.5461°E)
Time: 21:51:01
(UTC+00:00)

CZ-4 R/B - Pass Details

Date: 21 October 2019
Orbit: 530 x 601 km, 97.8° (Epoch: 11 November)

Event Time Altitude Azimuth Distance (km) Brightness Sun altitude
Rises 18:18:11 0° 195° (SSW) 2,806 5.1 -21.8°
Reaches altitude 10° 18:20:38 10° 209° (SSW) 1,920 4.3 -22.2°
Maximum altitude 18:24:07 25° 265° (W) 1,210 3.8 -22.9°
Drops below altitude 10° 18:27:39 10° 322° (NW) 1,949 4.7 -23.5°
Sets 18:30:09 0° 335° (NNW) 2,859 5.4 -24.0°
